TOM303 DTNH-EGNT

Flight info

Callsign TOM303
Flight time N/A
Altitude 36000
Route DTNH/09 VAXAL A411 TUC UM733 OSMAR DCT PIRIX DCT CAR DCT GIGGI DCT UPDUT DCT CORSI DCT OMEDA DCT MERLU DCT PIGOS DCT BARSO DCT OKTET DCT GIPNO DCT BULOL DCT IDAVO DCT BAGBI DCT SIZZA DCT LAULY DCT BRY DCT CLM DCT KOPOR DCT VESAN DCT RATUK DCT SOVAT L613 MAMUL UY250 RIMTO
Aircraft B738/M-SDE2E3FGHIRWXY/LB1

Departure

Time N/A
Airport Enfidha - Hammamet International Airport (DTNH)

Arrival

Time 2026-05-04 14:47
Airport Newcastle International Airport (EGNT)
Time Latitude Longitude Altitude Speed Heading
2026-05-04 12:44 44.04278 6.98412 36107 ft 430 kts 320°
2026-05-04 12:44 44.06767 6.96100 36098 ft 431 kts 320°
2026-05-04 12:45 44.11751 6.91468 36105 ft 431 kts 320°
2026-05-04 12:45 44.15898 6.87607 36106 ft 432 kts 320°
2026-05-04 12:46 44.20903 6.82937 36116 ft 434 kts 319°
2026-05-04 12:46 44.25922 6.78243 36123 ft 435 kts 319°
2026-05-04 12:47 44.30963 6.73517 36110 ft 437 kts 319°
2026-05-04 12:47 44.36013 6.68774 36097 ft 438 kts 319°
2026-05-04 12:48 44.41067 6.64018 36111 ft 438 kts 319°
2026-05-04 12:48 44.46099 6.59274 36102 ft 432 kts 320°
2026-05-04 12:49 44.51079 6.54562 36164 ft 435 kts 319°
2026-05-04 12:49 44.56143 6.49755 36311 ft 442 kts 320°
2026-05-04 12:49 44.58688 6.47337 36501 ft 442 kts 320°
2026-05-04 12:50 44.61234 6.44921 36687 ft 441 kts 319°
2026-05-04 12:50 44.66327 6.40077 36839 ft 443 kts 319°
2026-05-04 12:50 44.68871 6.37647 37059 ft 442 kts 319°
2026-05-04 12:51 44.71414 6.35219 37223 ft 441 kts 319°
2026-05-04 12:51 44.73914 6.32830 37470 ft 439 kts 319°
2026-05-04 12:51 44.76439 6.30413 37674 ft 438 kts 319°
2026-05-04 12:51 44.78949 6.28010 37964 ft 435 kts 319°
2026-05-04 12:52 44.81450 6.25615 38106 ft 434 kts 319°
2026-05-04 12:52 44.86454 6.20802 38044 ft 438 kts 319°
2026-05-04 12:53 44.91454 6.15979 38077 ft 433 kts 319°
2026-05-04 12:53 44.96411 6.11192 38096 ft 431 kts 319°
2026-05-04 12:54 45.01398 6.06379 37967 ft 440 kts 319°
2026-05-04 12:54 45.03945 6.03910 37762 ft 447 kts 319°
2026-05-04 12:54 45.06521 6.01411 37557 ft 451 kts 319°
2026-05-04 12:54 45.09111 5.98898 37338 ft 452 kts 319°
2026-05-04 12:55 45.11703 5.96382 37108 ft 451 kts 319°
2026-05-04 12:55 45.14276 5.93884 36856 ft 446 kts 319°
2026-05-04 12:55 45.16828 5.91405 36575 ft 442 kts 319°
2026-05-04 12:55 45.19360 5.88938 36324 ft 443 kts 319°
2026-05-04 12:56 45.21895 5.86460 36103 ft 443 kts 319°
2026-05-04 12:56 45.26927 5.81544 36034 ft 436 kts 319°
2026-05-04 12:57 45.31915 5.76654 36052 ft 436 kts 319°
2026-05-04 12:57 45.36986 5.71793 36038 ft 445 kts 324°
2026-05-04 12:58 45.42480 5.67597 36052 ft 451 kts 327°
2026-05-04 12:58 45.48104 5.63518 36061 ft 455 kts 327°
2026-05-04 12:59 45.53734 5.59369 36043 ft 456 kts 327°
2026-05-04 12:59 45.59351 5.55159 36038 ft 456 kts 326°
2026-05-04 13:00 45.64949 5.50927 36047 ft 455 kts 326°
2026-05-04 13:00 45.70539 5.46688 36053 ft 455 kts 326°
2026-05-04 13:01 45.76082 5.42474 36038 ft 453 kts 326°
2026-05-04 13:01 45.81639 5.38244 36038 ft 451 kts 326°
2026-05-04 13:02 45.87173 5.34021 36040 ft 450 kts 326°
2026-05-04 13:02 45.92697 5.29796 36039 ft 449 kts 326°
2026-05-04 13:03 45.98246 5.25539 36031 ft 454 kts 326°
2026-05-04 13:03 46.03825 5.21251 36033 ft 455 kts 326°
2026-05-04 13:04 46.09421 5.16942 36032 ft 457 kts 326°
2026-05-04 13:04 46.15039 5.12606 36031 ft 458 kts 326°
2026-05-04 13:05 46.20657 5.08261 36029 ft 459 kts 326°
2026-05-04 13:05 46.26277 5.03903 36029 ft 458 kts 326°
2026-05-04 13:06 46.31893 4.99538 36022 ft 458 kts 326°
2026-05-04 13:06 46.37508 4.95164 36015 ft 458 kts 326°
2026-05-04 13:07 46.43107 4.90791 36017 ft 457 kts 326°
2026-05-04 13:07 46.48694 4.86417 36021 ft 456 kts 327°
2026-05-04 13:08 46.54275 4.82038 36012 ft 456 kts 327°
2026-05-04 13:08 46.59854 4.77650 36010 ft 456 kts 327°
2026-05-04 13:09 46.65424 4.73259 36013 ft 455 kts 327°
2026-05-04 13:09 46.70950 4.68892 35996 ft 455 kts 327°
2026-05-04 13:10 46.76517 4.64481 35997 ft 456 kts 327°
2026-05-04 13:10 46.82100 4.60048 35987 ft 457 kts 327°
2026-05-04 13:11 46.87678 4.55609 35990 ft 456 kts 326°
2026-05-04 13:11 46.93257 4.51158 35987 ft 457 kts 327°
2026-05-04 13:12 46.98852 4.46683 35980 ft 459 kts 327°
2026-05-04 13:12 47.04460 4.42188 35981 ft 459 kts 327°
2026-05-04 13:13 47.10056 4.37692 35979 ft 459 kts 327°
2026-05-04 13:13 47.15648 4.33188 35973 ft 459 kts 327°
2026-05-04 13:14 47.21241 4.28672 35971 ft 458 kts 326°
2026-05-04 13:14 47.26827 4.24151 35968 ft 458 kts 326°
2026-05-04 13:15 47.32377 4.19647 35973 ft 458 kts 327°
2026-05-04 13:15 47.37956 4.15110 35969 ft 458 kts 327°
2026-05-04 13:16 47.43532 4.10563 35969 ft 458 kts 327°
2026-05-04 13:16 47.49110 4.06004 35961 ft 458 kts 327°
2026-05-04 13:17 47.54689 4.01433 35978 ft 459 kts 327°
2026-05-04 13:17 47.60276 3.96843 35962 ft 460 kts 327°
2026-05-04 13:18 47.65867 3.92241 35960 ft 459 kts 327°
2026-05-04 13:18 47.71448 3.87634 35959 ft 459 kts 327°
2026-05-04 13:19 47.77023 3.83021 35966 ft 459 kts 327°
2026-05-04 13:19 47.82603 3.78393 35956 ft 459 kts 327°
2026-05-04 13:20 47.88172 3.73761 35958 ft 459 kts 327°
2026-05-04 13:20 47.93737 3.69122 35966 ft 458 kts 326°
2026-05-04 13:21 47.99300 3.64473 35962 ft 458 kts 326°
2026-05-04 13:21 48.04867 3.59808 35962 ft 458 kts 326°
2026-05-04 13:22 48.10425 3.55140 35966 ft 459 kts 326°
2026-05-04 13:22 48.15991 3.50453 35968 ft 459 kts 326°
2026-05-04 13:23 48.21550 3.45760 35966 ft 459 kts 326°
2026-05-04 13:23 48.27109 3.41055 35984 ft 459 kts 327°
2026-05-04 13:24 48.32670 3.36336 35974 ft 459 kts 326°
2026-05-04 13:24 48.38235 3.31603 35969 ft 459 kts 326°
2026-05-04 13:25 48.46871 3.25336 35977 ft 464 kts 334°
2026-05-04 13:25 48.52857 3.21676 35967 ft 464 kts 334°
2026-05-04 13:26 48.58813 3.17949 35971 ft 463 kts 334°
2026-05-04 13:26 48.64740 3.14155 35973 ft 462 kts 333°
2026-05-04 13:27 48.70651 3.10347 35975 ft 462 kts 333°
2026-05-04 13:27 48.76570 3.06528 35973 ft 463 kts 333°
2026-05-04 13:28 48.82488 3.02705 35963 ft 462 kts 333°
2026-05-04 13:28 48.88230 2.98424 35977 ft 458 kts 326°
2026-05-04 13:29 48.93720 2.93514 35954 ft 457 kts 325°
2026-05-04 13:29 48.99183 2.88587 35960 ft 457 kts 326°
2026-05-04 13:30 49.04678 2.83710 35963 ft 457 kts 326°
2026-05-04 13:30 49.10184 2.78853 35964 ft 457 kts 326°
2026-05-04 13:31 49.15685 2.73994 35959 ft 457 kts 326°
2026-05-04 13:31 49.21173 2.69131 35964 ft 456 kts 326°
2026-05-04 13:32 49.26630 2.64279 35975 ft 457 kts 326°
2026-05-04 13:32 49.32124 2.59383 35962 ft 457 kts 326°
2026-05-04 13:33 49.37618 2.54474 35963 ft 457 kts 326°
2026-05-04 13:33 49.43109 2.49554 35962 ft 457 kts 326°
2026-05-04 13:34 49.48599 2.44624 35962 ft 457 kts 326°
2026-05-04 13:34 49.54379 2.40522 35963 ft 462 kts 340°
2026-05-04 13:35 49.63646 2.36455 35963 ft 462 kts 342°
2026-05-04 13:36 49.68823 2.34179 35971 ft 462 kts 341°
2026-05-04 13:36 49.74959 2.31409 35973 ft 462 kts 341°
2026-05-04 13:37 49.81129 2.28587 35952 ft 462 kts 341°
2026-05-04 13:37 49.87293 2.25758 35983 ft 462 kts 341°
2026-05-04 13:38 49.93459 2.22923 35964 ft 462 kts 341°
2026-05-04 13:38 49.99628 2.20080 35976 ft 463 kts 341°
2026-05-04 13:39 50.05815 2.17222 35969 ft 464 kts 341°
2026-05-04 13:39 50.12000 2.14357 35962 ft 463 kts 341°
2026-05-04 13:40 50.18161 2.11495 35958 ft 461 kts 341°
2026-05-04 13:40 50.24297 2.08637 35964 ft 459 kts 341°
2026-05-04 13:41 50.30414 2.05780 35964 ft 458 kts 341°
2026-05-04 13:41 50.36415 2.02527 35973 ft 453 kts 330°
2026-05-04 13:42 50.41529 1.96984 35980 ft 445 kts 315°
2026-05-04 13:42 50.43847 1.93775 35972 ft 445 kts 314°
2026-05-04 13:42 50.48462 1.87320 35992 ft 445 kts 315°
2026-05-04 13:43 50.53113 1.80902 36011 ft 445 kts 315°
2026-05-04 13:43 50.57811 1.74457 36156 ft 450 kts 316°
2026-05-04 13:44 50.60169 1.71220 36417 ft 449 kts 316°
2026-05-04 13:44 50.62486 1.68036 36705 ft 447 kts 316°
2026-05-04 13:44 50.64854 1.64774 36980 ft 446 kts 316°
2026-05-04 13:44 50.67180 1.61563 37210 ft 445 kts 316°
2026-05-04 13:45 50.69511 1.58339 37404 ft 445 kts 316°
2026-05-04 13:45 50.71839 1.55116 37597 ft 445 kts 316°
2026-05-04 13:45 50.74129 1.51941 37811 ft 445 kts 316°
2026-05-04 13:45 50.76452 1.48717 37994 ft 444 kts 316°
2026-05-04 13:46 50.81113 1.42238 38004 ft 447 kts 316°
2026-05-04 13:46 50.85769 1.35756 38004 ft 445 kts 316°
2026-05-04 13:47 50.90398 1.29293 38008 ft 443 kts 316°
2026-05-04 13:47 50.95006 1.22839 38012 ft 441 kts 316°
2026-05-04 13:48 50.99594 1.16395 38018 ft 440 kts 316°
2026-05-04 13:48 51.04171 1.09950 38022 ft 440 kts 316°
2026-05-04 13:49 51.08901 1.03769 38021 ft 442 kts 322°
2026-05-04 13:49 51.13975 0.98214 38019 ft 444 kts 324°
2026-05-04 13:50 51.19095 0.92691 38018 ft 445 kts 324°
2026-05-04 13:50 51.24208 0.87073 38001 ft 447 kts 323°
2026-05-04 13:51 51.29317 0.81388 38005 ft 448 kts 323°
2026-05-04 13:51 51.34437 0.75661 38018 ft 450 kts 323°
2026-05-04 13:52 51.42129 0.67028 38016 ft 451 kts 323°
2026-05-04 13:53 51.47262 0.61250 38021 ft 451 kts 323°
2026-05-04 13:53 51.52395 0.55456 38019 ft 450 kts 323°
2026-05-04 13:54 51.60066 0.46766 38026 ft 449 kts 323°
2026-05-04 13:55 51.67677 0.38107 38014 ft 448 kts 323°
2026-05-04 13:55 51.75299 0.29399 38011 ft 447 kts 323°
2026-05-04 13:56 51.80362 0.23595 38015 ft 446 kts 323°
2026-05-04 13:57 51.87926 0.14892 38021 ft 444 kts 323°
2026-05-04 13:58 51.97955 0.03297 38012 ft 440 kts 323°
2026-05-04 13:58 52.05543 -0.04928 38040 ft 436 kts 330°
2026-05-04 13:59 52.10901 -0.09496 38035 ft 435 kts 332°
2026-05-04 14:00 52.18951 -0.16428 37913 ft 443 kts 331°
2026-05-04 14:00 52.24475 -0.21301 37401 ft 457 kts 330°
2026-05-04 14:00 52.27276 -0.23778 37142 ft 459 kts 330°
2026-05-04 14:01 52.30084 -0.26263 36889 ft 458 kts 331°
2026-05-04 14:01 52.32879 -0.28739 36638 ft 457 kts 331°
2026-05-04 14:01 52.38452 -0.33682 36187 ft 454 kts 330°
2026-05-04 14:02 52.41223 -0.36145 36160 ft 451 kts 330°
2026-05-04 14:02 52.46739 -0.41061 36149 ft 452 kts 330°
2026-05-04 14:03 52.52279 -0.46013 36148 ft 455 kts 330°
2026-05-04 14:03 52.57812 -0.50974 36157 ft 457 kts 331°
2026-05-04 14:04 52.66190 -0.58511 36144 ft 458 kts 330°
2026-05-04 14:04 52.71780 -0.63558 36152 ft 457 kts 331°
2026-05-04 14:05 52.80134 -0.71127 36169 ft 455 kts 331°
2026-05-04 14:06 52.85670 -0.76166 36150 ft 453 kts 331°
2026-05-04 14:06 52.91183 -0.81196 36148 ft 452 kts 331°
2026-05-04 14:07 52.96676 -0.86223 36135 ft 452 kts 331°
2026-05-04 14:07 53.02211 -0.91280 36065 ft 456 kts 333°
2026-05-04 14:08 53.07860 -0.95942 36053 ft 450 kts 335°
2026-05-04 14:08 53.13476 -1.00404 36053 ft 446 kts 335°
2026-05-04 14:09 53.21837 -1.07165 36064 ft 445 kts 335°
2026-05-04 14:10 53.30201 -1.14036 35660 ft 448 kts 335°
2026-05-04 14:10 53.32978 -1.16328 35414 ft 442 kts 335°
2026-05-04 14:10 53.35719 -1.18593 35128 ft 436 kts 336°
2026-05-04 14:10 53.38420 -1.20828 34779 ft 431 kts 336°
2026-05-04 14:11 53.41099 -1.23046 34406 ft 428 kts 336°
2026-05-04 14:11 53.46398 -1.27441 33574 ft 422 kts 337°
2026-05-04 14:11 53.49024 -1.29623 33152 ft 419 kts 337°
2026-05-04 14:12 53.51604 -1.31770 32792 ft 415 kts 337°
2026-05-04 14:12 53.54145 -1.33888 32400 ft 411 kts 337°
2026-05-04 14:12 53.59228 -1.38133 31650 ft 405 kts 337°
2026-05-04 14:13 53.61739 -1.40234 31287 ft 402 kts 337°
2026-05-04 14:13 53.64234 -1.42324 30927 ft 399 kts 337°
2026-05-04 14:13 53.66705 -1.44397 30564 ft 396 kts 337°
2026-05-04 14:13 53.69164 -1.46462 30213 ft 393 kts 337°
2026-05-04 14:14 53.71609 -1.48519 29805 ft 391 kts 337°
2026-05-04 14:14 53.76429 -1.52581 29060 ft 383 kts 336°
2026-05-04 14:14 53.78799 -1.54583 28684 ft 379 kts 336°
2026-05-04 14:15 53.83464 -1.58530 27958 ft 372 kts 336°
2026-05-04 14:15 53.88061 -1.62428 27226 ft 367 kts 336°
2026-05-04 14:16 53.92598 -1.66285 26524 ft 363 kts 336°
2026-05-04 14:16 53.94848 -1.68201 26158 ft 361 kts 336°
2026-05-04 14:17 53.99311 -1.72008 25455 ft 357 kts 335°
2026-05-04 14:17 54.01492 -1.73872 25116 ft 355 kts 335°
2026-05-04 14:17 54.05808 -1.78136 24087 ft 365 kts 329°
2026-05-04 14:18 54.08000 -1.80471 23490 ft 370 kts 329°
2026-05-04 14:18 54.12409 -1.85001 22262 ft 374 kts 336°
2026-05-04 14:19 54.17487 -1.85835 21153 ft 373 kts 10°
2026-05-04 14:19 54.20045 -1.85018 20586 ft 374 kts 11°
2026-05-04 14:19 54.22612 -1.84153 20014 ft 376 kts 11°
2026-05-04 14:19 54.25186 -1.83293 19452 ft 377 kts 10°
2026-05-04 14:20 54.27761 -1.82453 18886 ft 379 kts
2026-05-04 14:20 54.30359 -1.81622 18322 ft 380 kts
2026-05-04 14:20 54.32962 -1.80799 17674 ft 381 kts
2026-05-04 14:21 54.38174 -1.79157 16466 ft 381 kts
2026-05-04 14:21 54.40778 -1.78335 15858 ft 381 kts
2026-05-04 14:21 54.43405 -1.77505 15065 ft 386 kts
2026-05-04 14:21 54.46058 -1.76665 14291 ft 389 kts
2026-05-04 14:22 54.48710 -1.75824 13472 ft 386 kts
2026-05-04 14:22 54.51335 -1.74990 12621 ft 380 kts
2026-05-04 14:22 54.53910 -1.74171 11888 ft 372 kts
2026-05-04 14:22 54.56395 -1.73379 11466 ft 356 kts
2026-05-04 14:23 54.61091 -1.71880 10617 ft 331 kts
2026-05-04 14:23 54.63293 -1.71178 10220 ft 321 kts
2026-05-04 14:23 54.65453 -1.70488 9945 ft 308 kts
2026-05-04 14:24 54.66838 -1.70044 9957 ft 293 kts
2026-05-04 14:24 54.68778 -1.69420 9891 ft 275 kts
2026-05-04 14:24 54.70613 -1.68719 9666 ft 268 kts 19°
2026-05-04 14:24 54.72290 -1.67348 9463 ft 265 kts 25°
2026-05-04 14:25 54.74455 -1.65434 9147 ft 263 kts 25°
2026-05-04 14:25 54.77703 -1.62509 8581 ft 264 kts 25°
2026-05-04 14:25 54.79334 -1.61033 8282 ft 264 kts 25°
2026-05-04 14:26 54.80433 -1.60038 8091 ft 265 kts 25°
2026-05-04 14:26 54.82077 -1.58547 7783 ft 267 kts 25°
2026-05-04 14:26 54.83720 -1.57056 7475 ft 266 kts 25°
2026-05-04 14:26 54.85355 -1.55566 7129 ft 265 kts 25°
2026-05-04 14:27 54.87001 -1.54064 6789 ft 270 kts 25°
2026-05-04 14:27 54.88688 -1.52525 6462 ft 275 kts 25°
2026-05-04 14:27 54.90368 -1.50990 6107 ft 276 kts 25°
2026-05-04 14:27 54.92064 -1.49437 5760 ft 274 kts 25°
2026-05-04 14:28 54.93764 -1.47883 5408 ft 269 kts 25°
2026-05-04 14:28 54.95404 -1.46377 5067 ft 264 kts 27°
2026-05-04 14:28 54.96947 -1.44770 4734 ft 260 kts 29°
2026-05-04 14:28 54.98465 -1.43105 4412 ft 255 kts 30°
2026-05-04 14:29 55.01382 -1.39866 3834 ft 243 kts 30°
2026-05-04 14:29 55.04078 -1.36803 3306 ft 222 kts 30°
2026-05-04 14:30 55.05363 -1.35443 3059 ft 208 kts 17°
2026-05-04 14:30 55.06715 -1.35247 2838 ft 190 kts 339°
2026-05-04 14:30 55.08993 -1.37109 2853 ft 173 kts 330°
2026-05-04 14:31 55.10047 -1.38161 2980 ft 177 kts 314°
2026-05-04 14:31 55.10715 -1.41892 3021 ft 175 kts 251°
2026-05-04 14:32 55.09925 -1.45939 2945 ft 176 kts 247°
2026-05-04 14:32 55.09406 -1.47893 2731 ft 179 kts 246°
2026-05-04 14:32 55.08880 -1.49843 2506 ft 176 kts 246°
2026-05-04 14:32 55.08366 -1.51767 2268 ft 172 kts 246°
2026-05-04 14:33 55.07868 -1.53635 2033 ft 167 kts 245°
2026-05-04 14:33 55.07389 -1.55439 1803 ft 161 kts 245°
2026-05-04 14:33 55.06927 -1.57170 1574 ft 155 kts 245°
2026-05-04 14:33 55.06493 -1.58805 1403 ft 144 kts 244°
2026-05-04 14:34 55.06076 -1.60372 1190 ft 142 kts 242°
2026-05-04 14:34 55.05658 -1.61941 1011 ft 143 kts 244°
2026-05-04 14:34 55.05234 -1.63548 810 ft 149 kts 243°
2026-05-04 14:34 55.04790 -1.65191 606 ft 150 kts 245°
2026-05-04 14:35 55.04362 -1.66815 384 ft 143 kts 248°
2026-05-04 14:35 55.03951 -1.68378 256 ft 135 kts 246°
2026-05-04 14:35 55.03570 -1.69815 491 ft 136 kts 247°
2026-05-04 14:35 55.03113 -1.71355 1227 ft 159 kts 245°
2026-05-04 14:36 55.02566 -1.73187 1714 ft 172 kts 245°
2026-05-04 14:36 55.02032 -1.75055 2158 ft 176 kts 246°
2026-05-04 14:36 55.01245 -1.76803 2598 ft 196 kts 219°
2026-05-04 14:36 54.99893 -1.77620 2832 ft 222 kts 186°
2026-05-04 14:37 54.98307 -1.77210 3053 ft 242 kts 163°
2026-05-04 14:37 54.96743 -1.75832 3073 ft 263 kts 148°
2026-05-04 14:37 54.95326 -1.73806 2894 ft 263 kts 133°
2026-05-04 14:37 54.94336 -1.71176 2732 ft 259 kts 122°
2026-05-04 14:38 54.93417 -1.68542 2799 ft 251 kts 120°
2026-05-04 14:38 54.92729 -1.65821 3262 ft 249 kts 108°
2026-05-04 14:38 54.92405 -1.62843 3817 ft 253 kts 91°
2026-05-04 14:38 54.92454 -1.59666 4418 ft 273 kts 80°
2026-05-04 14:39 54.93000 -1.56485 4913 ft 277 kts 64°
2026-05-04 14:39 54.93870 -1.53473 4975 ft 280 kts 61°
2026-05-04 14:39 54.94785 -1.50508 4993 ft 276 kts 60°
2026-05-04 14:40 54.96593 -1.44713 4568 ft 269 kts 60°
2026-05-04 14:40 54.97476 -1.41891 4300 ft 263 kts 60°
2026-05-04 14:40 54.98350 -1.39105 3978 ft 260 kts 60°
2026-05-04 14:40 54.99323 -1.36528 3696 ft 251 kts 42°
2026-05-04 14:41 55.00683 -1.34735 3488 ft 240 kts 31°
2026-05-04 14:41 55.02047 -1.33170 3305 ft 229 kts 28°
2026-05-04 14:41 55.04892 -1.32645 3072 ft 196 kts 340°
2026-05-04 14:42 55.07339 -1.33985 2981 ft 178 kts 324°
2026-05-04 14:42 55.08330 -1.35217 3005 ft 176 kts 320°
2026-05-04 14:42 55.09229 -1.36675 3010 ft 178 kts 310°
2026-05-04 14:43 55.10052 -1.38292 2991 ft 177 kts 300°
2026-05-04 14:43 55.10539 -1.40220 3006 ft 172 kts 290°
2026-05-04 14:43 55.10731 -1.42232 2980 ft 169 kts 256°
2026-05-04 14:43 55.10302 -1.44167 3009 ft 174 kts 250°
2026-05-04 14:44 55.09837 -1.46177 2873 ft 180 kts 248°
2026-05-04 14:44 55.09325 -1.48166 2677 ft 180 kts 247°
2026-05-04 14:44 55.08806 -1.50120 2461 ft 176 kts 246°
2026-05-04 14:44 55.08293 -1.52041 2230 ft 172 kts 246°
2026-05-04 14:45 55.07794 -1.53913 2004 ft 168 kts 245°
2026-05-04 14:45 55.07308 -1.55741 1772 ft 164 kts 245°
2026-05-04 14:45 55.06833 -1.57523 1548 ft 158 kts 245°
2026-05-04 14:45 55.06388 -1.59203 1349 ft 148 kts 243°
2026-05-04 14:46 55.05961 -1.60803 1172 ft 144 kts 243°
2026-05-04 14:46 55.05538 -1.62398 960 ft 143 kts 244°
2026-05-04 14:46 55.05115 -1.63971 762 ft 143 kts 244°
2026-05-04 14:46 55.04700 -1.65547 546 ft 144 kts 248°
2026-05-04 14:47 55.04282 -1.67125 352 ft 142 kts 247°
2026-05-04 14:47 55.03878 -1.68655 250 ft 130 kts 246°
2026-05-04 14:47 55.03560 -1.69855 260 ft 88 kts 245°
2026-05-04 14:47 55.03403 -1.70446 265 ft 23 kts 245°
2026-05-04 14:48 55.03376 -1.70568 266 ft 0 kts 266°
2026-05-04 14:48 55.03379 -1.70598 267 ft 8 kts 290°
2026-05-04 14:48 55.03449 -1.70645 267 ft 13 kts
2026-05-04 14:48 55.03534 -1.70642 266 ft 9 kts
2026-05-04 14:49 55.03586 -1.70597 266 ft 9 kts 68°
2026-05-04 14:49 55.03609 -1.70526 266 ft 0 kts 36°
2026-05-04 14:49 55.03622 -1.70526 266 ft 5 kts 343°
2026-05-04 14:49 55.03651 -1.70562 266 ft 3 kts 319°
2026-05-04 14:50 55.03665 -1.70583 266 ft 2 kts 319°
2026-05-04 14:50 55.03666 -1.70585 266 ft 0 kts 319°